Weather in Ullensaker

Norway     60°05′02″N   11°09′49″E
temp.,
°C
wind,
m/s
gust,
m/s
humid.,
%
clouds,
%
prec.,
mm/h
press.,
hPa
HPBL,
m
10 may, mon
mon1023:00+5ne0199100 0.1 100436
02:00+5ese1199100 0.1 100448
05:00+5nne1199100 0.0 100337
08:00+6n1399100 0.3 1004139
11:00+6n2397100 2.5 1004189
14:00+7nne1298100 6.3 1004114
17:00+8ese0099100 0.9 100541
20:00+9w01100100 3.3 100417
11 may, tue
tue1123:00+11s41198100 0.8 1005586
02:00+9s3996100 0.9 1008446
05:00+7ssw269741 0.0 1010214
08:00+9ssw3790100 0.0 1012431
11:00+12ssw3575100 0.0 1013701
14:00+11sw2485100 0.6 1014416
17:00+9nnw1397100 5.5 1014195
20:00+8nne2699100 8.7 1014292
12 may, wed
wed1223:00+8n2798100 2.2 1013299
02:00+8n2898100 4.1 1012316
05:00+8n3996100 0.1 1012386
08:00+9n41092100 0.1 1012431
11:00+9n3997100 6.3 1011382
14:00+9n3697100 9.1 1011331
17:00+9n3796100 0.1 1010267
20:00+10n2696100 0.3 1009170
13 may, thu
thu1323:00+10nne1195100 0.1 101038
02:00+11ne1194100 0.1 101114
05:00+10ene259843 0.0 1012166
08:00+13ene268597 0.0 1012508
11:00+17e345294 0.0 10121119
14:00+20e23380 0.0 10101812
17:00+21nne24341 0.0 10082120
20:00+16ene2164100 0.0 100816
14 may, fri
fri1423:00+13e299315 1.8 1009363
02:00+10ene1197100 1.8 101010
05:00+11nnw1194100 0.0 100930
08:00+13ene148282 0.2 1009442
11:00+14e3469100 0.6 1008935
14:00+15nne2463100 1.1 10081145
17:00+14ene2474100 1.4 1007557
20:00+13ne128014 2.6 100735